RH
88 87 86 86 81 80 83 95 98 80 84 96 98 82 54 50 49 50 57 65 71 82 92 95 98 92 76 55 61 72 74 100 96 74 52 75 86 86 82 97 91 97 98 98
88 87 85 82 81 81 93 94 93 79 80 97 95 65 55 51 53 49 57 66 72 81 92 81 94 94 72 71 57 89 95 91 95 76 78 81 88 79 69 84 99 97 97 99
88 88 86 85 80 77 85 92 98 92 90 87 71 70 63 62 52 54 51 56 68 79 84 85 88 93 68 59 59 62 80 99 99 96 98 98 94 93 92 96 97 96 95 97
87 87 88 82 78 80 86 92 91 78 98 93 74 69 69 69 64 48 45 63 53 61 85 79 97 86 70 59 64 69 90 99 99 98 96 89 92 99 93 90 90 91 98 94
88 87 82 79 79 81 86 97 84 77 82 73 67 71 71 66 56 45 47 56 58 58 66 67 72 68 74 75 74 73 86 98 100 99 100 96 93 95 85 94 97 97 92 94
86 80 81 82 81 77 85 85 72 76 75 70 69 76 72 66 46 61 48 56 62 63 60 62 62 60 64 61 70 91 98 100 98 97 78 78 80 98 97 89 91 93 84 95
80 77 79 80 78 78 86 84 75 84 89 66 60 63 52 54 51 57 61 58 62 56 66 72 71 79 75 75 70 76 97 99 99 97 94 90 94 80 80 84 88 90 84 90
76 74 75 78 80 81 93 96 79 82 91 65 58 62 64 62 61 62 66 64 57 73 80 82 83 81 73 86 74 92 83 99 98 98 93 95 85 87 92 92 95 93 95 94
78 81 83 83 82 79 94 100 88 83 84 78 59 67 62 70 69 64 69 68 75 76 88 91 98 98 83 84 83 69 80 83 99 96 87 96 92 81 79 79 91 88 83 89
80 82 84 84 80 78 90 99 92 83 96 82 71 70 72 73 75 75 78 82 86 80 93 96 96 95 81 98 92 96 86 91 96 96 90 91 88 92 91 90 99 88 85 91
82 84 86 84 81 80 87 99 96 81 93 85 86 77 83 82 75 70 70 80 86 93 91 87 94 97 90 99 96 93 87 94 93 94 90 89 95 89 82 98 94 91 80 83
83 86 86 84 79 76 78 97 95 92 92 85 92 83 76 64 59 86 93 86 93 92 96 97 96 98 96 92 98 90 95 89 93 95 94 98 96 96 94 92 97 94 81 80
83 84 82 83 80 78 81 98 97 92 94 84 82 78 80 73 73 72 90 94 88 88 90 97 99 89 93 98 98 95 98 83 94 92 96 95 94 90 90 82 89 87 78 88
81 84 85 82 78 78 82 97 98 92 92 95 86 62 69 75 71 73 75 84 87 90 94 94 98 97 86 98 93 88 91 90 92 96 95 94 94 88 86 76 73 77 76 76
78 81 80 79 78 80 88 97 99 97 89 94 79 74 70 70 72 77 80 82 88 94 88 96 92 92 91 92 92 92 94 96 97 98 91 94 97 86 79 82 83 80 82 87
78 76 77 76 74 65 73 92 86 98 93 91 94 83 77 79 79 79 82 86 92 93 90 93 90 82 87 98 87 98 93 90 92 97 92 93 96 82 77 80 80 81 85 85
80 76 77 79 80 92 94 90 92 92 94 94 91 91 86 72 75 86 89 85 95 90 94 93 92 89 93 99 93 95 85 84 88 84 78 83 77 86 78 81 82 81 82 78
79 77 76 76 79 82 92 96 91 88 95 89 95 93 87 76 84 86 96 92 93 92 92 92 89 91 94 94 98 85 79 78 82 70 71 72 74 75 79 76 76 78 81 79
75 74 71 82 92 97 98 84 86 96 89 96 96 95 97 83 94 95 96 94 96 92 97 91 91 99 97 95 98 84 84 81 74 66 67 70 74 80 79 79 80 84 85 84
71 82 83 93 93 78 81 88 92 94 96 93 97 97 96 92 94 99 96 97 98 98 95 92 96 98 92 84 87 86 86 78 75 83 87 83 83 83 86 88 86 86 90 95
93 99 98 95 82 91 92 96 94 96 95 94 91 91 94 94 96 97 94 97 98 97 97 93 99 91 91 85 79 78 78 81 84 84 78 73 76 83 85 85 83 85 88 97
88 93 92 94 87 96 87 90 82 88 90 98 98 95 93 99 94 96 98 96 95 99 98 98 100 96 95 87 79 78 78 82 85 82 85 84 80 81 84 89 93 95 94 96
93 90 94 92 98 94 87 98 94 97 98 98 100 99 97 95 96 98 93 94 97 96 98 97 93 96 87 86 80 83 84 84 85 87 85 85 89 87 88 96 98 97 98 100
96 94 100 93 91 83 96 96 95 94 97 97 99 99 79 99 91 98 91 90 94 95 97 96 98 95 94 89 87 90 98 96 96 96 96 95 94 99 98 98 99 98 98 100
98 92 92 93 96 96 96 95 97 96 99 97 96 96 93 99 97 86 93 98 98 96 92 95 98 94 94 95 94 95 96 97 97 98 97 99 99 96 100 100 99 97 98 98
91 86 97 97 99 99 99 100 97 97 98 97 93 95 93 94 93 96 87 78 96 90 99 99 98 97 96 96 95 95 95 95 96 97 96 97 98 97 97 99 98 100 98 99
89 98 99 99 94 99 100 100 99 98 94 99 96 91 87 91 92 95 94 86 94 98 99 98 97 94 96 96 96 96 95 96 96 97 97 97 96 97 97 97 95 96 95 98
Wind_Speed
47 45 43 38 37 32 13 5 4 3 3 4 1 5 6 4 4 3 3 4 4 5 4 3 2 6 6 1 5 9 2 6 7 13 18 5 3 5 4 3 2 2 3 3
46 44 42 39 38 29 7 6 4 2 2 5 2 3 4 3 4 4 5 5 4 3 6 2 5 5 6 4 4 2 5 4 7 8 1 2 4 4 8 7 4 4 3 4
44 42 39 36 37 29 5 5 6 1 1 2 6 6 5 4 2 3 3 3 5 2 1 4 4 3 4 7 3 5 7 3 5 5 5 8 7 10 2 1 4 5 8 9
43 42 38 33 32 21 4 2 4 6 6 3 5 6 6 6 5 3 4 2 4 4 1 3 3 4 6 5 2 3 3 3 3 7 9 11 21 17 14 15 9 6 7 10
39 35 33 31 25 17 4 6 6 3 4 9 7 5 6 6 4 5 3 4 1 4 5 7 5 3 3 6 5 6 1 3 4 3 3 5 17 21 18 13 13 11 11 9
36 29 27 24 22 10 3 1 2 6 2 5 6 5 7 7 7 5 5 6 3 4 6 4 9 10 8 9 3 3 4 3 3 1 7 9 4 11 14 11 19 6 5 5
30 27 24 20 17 5 3 2 4 6 3 5 5 8 4 7 6 6 3 4 3 2 5 7 7 6 7 7 9 9 4 4 3 2 1 5 2 7 6 17 15 11 11 8
27 24 21 17 13 8 4 2 4 5 5 4 5 10 6 6 4 3 4 1 1 4 4 4 5 3 2 3 4 6 11 4 4 1 3 4 2 8 6 6 8 12 6 2
23 20 18 18 18 15 6 3 2 5 8 2 6 6 4 4 3 2 0 2 3 5 2 2 1 1 2 2 3 5 5 2 4 1 2 2 4 11 7 6 5 10 9 8
20 19 17 16 15 12 7 3 3 5 6 1 3 4 5 5 4 3 2 3 5 3 3 2 2 2 2 1 3 3 3 3 5 4 3 4 8 10 5 2 2 8 8 8
20 18 17 17 15 10 6 2 4 5 4 2 2 3 5 4 3 4 3 4 4 4 4 1 1 1 2 1 2 2 3 4 3 2 3 1 12 3 3 5 5 6 7 8
19 18 17 17 15 11 6 5 2 3 7 4 0 2 2 4 7 6 1 5 2 3 4 1 1 2 2 3 2 3 3 3 3 5 3 4 6 11 9 5 5 3 5 7
18 17 17 17 15 13 9 4 2 5 5 4 4 5 4 3 2 3 6 1 3 2 3 3 2 1 0 2 2 2 2 3 3 1 3 5 6 7 7 6 5 5 6 7
19 17 17 17 17 17 11 5 2 4 4 5 1 2 4 3 4 4 4 6 5 4 2 2 2 1 1 1 2 3 2 2 4 4 5 6 6 5 6 8 9 10 10 8
19 18 18 19 21 21 12 5 3 3 5 5 3 1 4 2 5 7 6 5 3 2 2 2 1 1 2 1 2 2 3 2 0 1 5 3 4 3 5 6 6 6 7 8
19 18 17 16 13 7 5 6 4 4 3 6 4 2 4 3 5 7 5 3 3 2 2 1 2 2 2 2 2 3 3 3 1 4 4 7 8 6 5 8 7 8 8 7
19 19 17 13 12 6 5 4 3 2 2 5 4 2 3 4 4 3 3 3 2 2 1 1 0 2 3 1 2 6 6 8 9 10 9 6 2 4 7 10 9 10 8 7
19 18 17 17 16 9 5 4 4 3 5 4 4 1 3 3 2 2 2 2 3 4 1 1 1 2 2 2 6 8 8 9 5 4 7 8 10 9 7 7 6 7 6 5
19 15 10 6 7 4 2 3 6 3 5 4 3 5 4 2 2 2 3 2 2 2 1 1 2 1 1 0 5 8 9 4 8 7 9 9 9 8 6 5 5 6 5 5
11 6 5 4 2 3 4 6 4 5 4 4 3 1 3 3 1 2 2 1 1 1 2 1 1 1 2 2 4 5 4 8 10 9 5 7 6 6 5 5 4 5 4 4
4 4 3 2 1 3 3 3 3 1 3 1 2 2 4 1 3 2 0 2 0 1 2 3 1 2 5 5 6 5 6 7 6 5 5 4 8 8 8 7 6 6 5 3
4 5 4 3 2 2 5 2 2 1 2 1 4 3 2 2 3 4 1 2 2 2 1 2 2 3 5 8 8 7 7 7 8 7 9 8 9 7 7 6 5 4 5 4
3 4 4 3 3 5 3 4 1 1 2 3 2 2 3 2 3 3 1 3 4 1 2 4 5 3 6 7 8 8 6 7 8 8 8 8 7 7 5 6 3 4 4 2
5 4 4 3 1 2 3 3 3 3 3 4 3 3 3 1 2 3 5 4 1 2 1 6 3 6 7 7 6 7 4 6 7 6 6 7 7 5 4 5 3 4 2 1
4 3 3 1 2 2 1 3 1 2 2 3 3 4 3 1 3 1 1 2 1 5 6 4 3 8 8 8 6 7 6 5 5 3 5 6 5 5 4 1 3 3 3 2
3 3 2 2 1 2 1 1 1 2 2 2 4 3 4 1 4 3 4 3 5 5 3 2 3 7 6 6 5 6 6 6 6 5 5 5 5 5 4 2 3 3 4 3
2 2 1 1 0 2 2 1 2 2 2 2 3 4 6 2 2 1 4 5 4 2 1 2 2 7 7 6 6 6 6 6 6 5 4 4 4 4 2 1 2 4 4 5
Wind_Direction
157 153 147 147 141 139 141 142 130 155 153 97 224 147 181 144 146 117 124 134 155 176 174 217 286 221 231 46 343 307 286 290 280 263 289 181 190 247 224 246 277 94 76 56
151 147 145 148 142 145 141 125 121 52 88 145 180 154 124 123 132 145 158 174 154 114 185 42 210 238 248 268 320 302 348 274 297 305 15 11 304 278 268 278 178 183 116 88
143 139 140 145 149 163 129 123 112 118 114 268 141 131 142 126 105 128 152 139 104 134 345 214 256 277 290 328 224 258 300 292 351 358 350 331 341 327 17 161 41 64 63 96
138 136 140 153 161 166 106 71 163 174 164 216 145 105 132 134 155 156 158 139 157 158 233 265 227 236 300 311 278 337 342 277 245 90 50 17 34 35 55 65 50 51 87 75
125 132 145 148 159 152 88 131 131 64 94 122 109 112 175 149 160 141 177 165 296 179 200 196 250 281 149 241 313 340 35 278 275 249 293 9 38 30 39 62 87 87 87 79
125 135 136 143 151 157 126 157 62 102 101 119 108 173 158 179 146 31 124 146 169 240 244 233 238 229 234 235 308 312 299 296 287 290 346 317 20 12 31 50 36 40 70 63
130 132 135 144 153 168 109 150 114 94 116 122 139 140 130 148 173 135 148 139 168 243 336 290 264 234 235 215 233 200 271 273 254 268 135 32 254 5 35 70 42 52 86 95
126 134 137 139 145 132 91 143 104 108 95 105 104 123 116 103 71 92 147 125 174 325 340 349 332 1 58 170 175 173 209 285 283 280 60 118 19 18 347 355 52 26 38 85
133 129 121 122 125 118 88 56 25 95 117 221 114 109 129 126 113 55 135 344 333 41 67 29 71 89 329 330 36 170 134 38 275 78 114 154 50 328 325 303 70 28 32 27
122 118 111 114 107 100 100 67 12 87 101 25 103 124 143 115 95 118 300 347 5 38 53 69 61 308 313 330 1 337 351 14 347 357 93 98 354 318 308 299 10 42 46 40
113 107 103 104 95 85 82 106 15 101 90 52 32 112 123 83 96 134 233 56 353 35 62 70 3 357 343 299 40 13 54 318 10 340 54 28 355 7 53 95 75 80 72 71
107 101 97 96 96 88 89 77 14 28 81 136 87 38 60 104 167 131 37 145 107 162 93 67 88 353 352 311 99 17 57 47 21 4 72 48 20 60 56 53 90 89 102 93
108 106 98 92 92 82 93 101 31 57 86 40 61 44 15 86 116 162 115 1 141 91 166 154 154 100 190 346 75 104 92 36 87 186 95 76 62 41 58 61 75 45 96 101
112 106 94 92 89 80 78 80 352 77 113 103 20 357 51 82 133 77 84 119 67 96 90 100 129 133 357 10 47 63 4 343 100 76 111 103 76 56 96 79 76 72 59 67
116 108 100 96 97 91 82 77 35 52 111 139 136 357 10 153 126 109 86 82 91 82 62 60 221 213 78 52 41 66 9 28 32 119 137 94 105 89 108 90 79 80 92 70
109 112 107 99 90 75 61 48 350 9 70 94 97 298 4 81 104 98 92 102 96 95 119 220 278 257 99 88 83 75 57 47 274 121 81 96 108 104 98 99 91 80 79 76
107 106 99 90 78 60 69 146 200 4 51 82 79 45 328 78 90 59 55 47 69 93 104 36 61 350 69 82 129 129 98 99 99 109 108 77 62 122 100 101 93 91 84 82
108 106 92 89 94 82 45 10 57 63 85 67 101 74 105 15 78 71 353 65 32 13 146 20 66 18 70 85 127 131 129 123 112 76 81 104 106 101 104 106 111 97 92 92
112 102 87 62 41 55 68 79 70 59 103 107 87 138 162 21 62 105 45 68 48 295 78 263 85 339 171 163 141 151 154 163 143 108 109 122 121 121 116 111 104 113 109 95
95 51 49 37 354 312 39 7 29 18 358 40 96 313 111 93 330 357 92 21 151 100 260 98 92 132 101 31 88 91 73 108 126 123 128 127 131 132 117 105 98 110 111 102
42 57 59 208 179 57 34 62 77 17 28 50 109 121 120 357 106 171 73 176 256 82 242 139 258 244 179 142 105 81 71 80 69 73 79 112 137 142 134 120 110 111 116 109
147 118 115 76 63 50 85 57 99 106 170 136 127 188 147 99 85 93 205 113 22 198 174 139 278 246 134 139 129 105 96 92 80 77 95 96 105 111 114 116 110 97 103 95
42 52 75 83 329 72 150 160 245 233 182 183 142 116 117 57 38 64 115 84 216 202 54 226 226 168 146 132 127 114 97 101 101 91 88 93 89 79 98 109 88 120 105 59
60 63 72 95 127 161 183 187 189 237 126 134 117 93 104 93 89 166 94 238 194 77 4 239 220 166 151 135 130 123 122 105 105 100 91 98 101 98 74 97 118 111 119 189
68 53 94 110 229 239 243 212 101 103 134 119 75 57 86 24 91 171 150 137 261 209 228 235 207 149 144 144 137 133 134 133 129 131 122 129 128 118 110 158 168 134 141 172
64 80 59 331 331 2 97 92 95 106 160 106 59 105 59 305 133 84 202 174 226 249 225 237 133 137 138 138 132 133 135 141 142 138 134 131 134 141 159 160 188 200 193 224
31 354 2 243 37 237 313 17 99 101 69 145 107 93 201 113 43 278 176 212 218 222 181 116 135 158 150 132 125 135 141 142 141 137 137 145 152 149 136 101 259 223 225 215